{"data":{"norad_id":63236,"epoch":"2026-05-25T03:45:12.280032Z","epoch_age_seconds":61235,"freshness":"FRESH","line1":"1 63236U 25052AC  26145.15639213  .00004125  00000+0  18457-3 0  9991","line2":"2 63236  97.3868  37.2386 0002519 208.9503 151.1594 15.21841329 66314","mean_motion":15.21841329,"eccentricity":0.0002519,"inclination_deg":97.3868,"raan_deg":37.2386,"arg_perigee_deg":208.9503,"mean_anomaly_deg":151.1594,"bstar":0.00018457,"rev_number":6631,"period_min":94.622216689714,"perigee_km":498.55404175265,"apogee_km":502.01939162112,"semimajor_km":6878.4237166869,"source":"CELESTRAK","updated_at":"2026-05-25T13:38:03.582623Z"}}